Погода в Бейомбонге

Филиппины     16°29′14″N   121°09′10″E
темп.,
°C
ветер,
м/с
пор.,
м/с
влажн.,
%
обл.,
%
осадки,
мм/ч
давл.,
гПа
погр.,
м
5 марта, пт
пт523:00+20юз01988 0.0 101723
02:00+19юз019823 0.1 101523
05:00+20вюв019795 0.2 101623
08:00+22св119159 0.5 1017226
11:00+27св22631 0.1 10171065
14:00+28ссв22553 0.1 10141110
17:00+26св23730 0.1 1014589
20:00+20з01950 0.1 101523
6 марта, сб
сб623:00+19юз01970 0.0 101623
02:00+19ююз01974 0.0 101423
05:00+18юз019739 0.0 101523
08:00+21с118749 0.0 1017264
11:00+27св226360 0.0 1017918
14:00+28ссв225531 0.0 1014959
17:00+26ссв23710 0.0 1014582
20:00+20юз01920 0.0 101524
7 марта, вс
вс723:00+19юз11958 0.0 101623
02:00+18ююз019710 0.0 101523
05:00+18юз009732 0.0 101523
08:00+21с118536 0.0 1017273
11:00+26св236282 0.0 1016995
14:00+27св335654 0.0 10131037
17:00+25св23710 0.0 1013688
20:00+20с11920 0.0 101524
8 марта, пн
пн823:00+18ссз11951 0.0 101625
02:00+17сз11977 0.0 101526
05:00+18с009273 0.0 101537
08:00+21ссв128675 0.1 1017362
11:00+25св24627 0.1 10171108
14:00+26св34614 0.1 10131156
17:00+25св24720 0.0 1013857
20:00+19св11931 0.1 101526
9 марта, вт
вт923:00+19сз119251 0.0 101627
02:00+18ссз119558 0.0 101527
05:00+17з119747 0.0 101523
08:00+21ссв118426 0.0 1017271
11:00+25св236244 0.1 10171110
14:00+26св336131 0.1 10141207
17:00+24св23721 0.0 1014872
20:00+20св12950 0.2 101627